GFSFLT1_sfc_rhum_057.txt.gz
RH
94 84 86 89 91 91 94 92 94 85 84 89 86 76 76 78 77 79 85 84 85 88 92 94 94 96 96 88 82 84 80 76
95 81 84 85 83 85 86 93 93 91 72 86 80 77 73 73 77 71 77 83 84 90 94 95 95 93 90 85 86 85 84 78
96 81 85 88 85 84 83 83 86 84 73 60 65 67 69 72 71 72 72 79 82 86 92 96 95 94 91 93 88 89 85 75
94 85 88 87 89 85 83 80 76 73 72 72 70 64 68 75 74 78 76 76 80 87 91 95 96 95 92 93 92 88 90 81
96 88 92 91 85 84 81 82 80 79 80 77 69 60 56 71 78 78 76 80 82 87 90 94 95 95 95 92 92 92 92 86
95 94 94 87 84 95 89 84 78 74 81 82 78 77 69 69 79 82 84 86 88 89 92 94 95 96 95 96 98 95 94 94
83 86 86 88 90 93 91 87 82 74 76 85 87 77 78 80 84 92 90 90 92 92 92 93 94 96 97 98 97 96 96 97
79 86 87 83 88 89 85 83 82 76 73 72 82 85 78 76 78 87 90 93 94 92 93 96 94 94 96 96 96 96 98 96
74 74 77 77 78 81 81 77 77 73 74 71 70 76 79 75 75 83 92 89 88 92 95 94 93 97 98 98 98 98 96 95
68 70 69 70 73 75 77 73 70 68 70 71 68 70 72 74 78 82 88 92 90 94 94 94 96 97 98 98 98 97 96 94
66 65 68 67 66 70 73 69 65 62 63 64 62 65 71 66 73 83 92 92 97 98 98 97 97 98 98 98 97 95 93 95
60 64 62 63 64 70 74 71 68 66 63 60 61 65 71 74 78 81 94 95 94 97 97 97 98 99 98 96 95 92 90 92
48 55 61 62 62 67 72 77 74 70 64 62 66 68 72 78 81 89 94 96 93 93 94 97 98 98 97 96 94 86 88 93
46 51 57 62 62 62 66 71 75 72 72 70 74 79 79 82 86 91 92 90 95 97 97 98 97 96 94 92 87 91 90 91
45 49 52 58 60 62 64 69 70 71 71 73 77 80 83 84 88 90 92 89 95 98 98 96 95 94 90 89 90 92 91 90
46 48 47 49 55 58 59 63 68 69 72 71 74 81 89 89 90 90 95 97 97 97 98 98 96 94 91 88 87 90 90 94
33 45 50 58 54 52 54 58 66 71 73 75 79 90 93 93 94 96 98 98 98 98 97 97 97 91 96 92 88 91 91 92
30 43 47 51 57 65 66 63 77 85 80 86 93 96 96 97 99 98 98 98 98 97 97 94 94 93 95 94 94 90 91 91
32 35 54 58 86 92 96 96 93 90 91 96 95 97 98 98 98 98 98 98 97 97 97 95 94 95 97 95 94 91 94 94

GFSFLT1_sfc_rhum_060.txt.gz
RH
92 90 90 93 95 96 96 95 94 92 92 91 88 82 86 85 85 80 83 76 80 82 91 91 93 94 94 91 88 87 80 76
94 90 87 92 93 94 92 94 96 90 85 88 92 90 79 80 79 83 84 87 88 90 93 94 96 95 93 89 88 86 84 78
90 79 87 88 91 88 89 85 90 93 88 72 83 85 76 74 76 76 79 86 88 92 94 94 95 96 93 92 88 94 89 82
88 82 85 89 88 89 86 84 85 87 86 84 70 69 86 74 75 74 75 75 83 88 92 96 96 95 94 95 91 88 92 90
86 82 84 86 86 83 82 80 77 74 79 80 71 64 78 71 71 71 74 77 82 82 90 93 95 97 95 94 93 92 92 92
96 91 84 81 84 83 81 85 76 72 77 70 78 82 70 74 76 76 76 85 86 88 91 93 95 97 96 95 96 96 95 95
94 93 93 95 95 93 85 91 83 80 84 82 80 80 78 75 78 88 88 90 91 91 92 94 95 96 96 96 97 98 97 93
95 98 98 96 98 97 96 91 90 82 85 84 84 85 83 78 81 86 90 92 94 93 93 95 97 95 95 96 97 97 97 96
87 90 93 92 92 96 93 94 91 86 83 84 85 86 82 78 81 90 94 93 93 90 93 94 95 94 95 96 97 97 98 97
80 82 84 85 86 90 92 88 86 85 85 83 81 82 87 87 87 88 87 94 94 92 93 94 95 96 97 98 98 99 99 99
74 76 80 78 76 80 86 83 81 79 80 80 77 76 79 79 84 84 81 79 94 94 94 95 96 97 98 98 99 99 99 99
71 71 72 71 72 78 82 83 80 79 77 74 75 77 77 79 79 79 82 83 92 93 94 95 96 97 98 98 99 98 97 98
63 70 72 74 71 75 79 80 79 76 73 69 73 75 74 75 77 76 82 85 91 89 89 92 95 97 98 98 98 97 96 97
60 69 72 71 72 72 74 77 76 73 73 71 71 72 73 75 75 77 81 84 87 96 94 94 96 98 98 97 96 96 95 92
53 62 65 69 69 69 72 75 75 73 71 71 74 72 72 73 76 82 84 88 84 87 95 93 96 98 98 97 96 95 94 94
44 56 60 64 70 69 66 69 73 76 77 74 76 75 73 78 85 86 89 90 87 85 94 98 98 98 97 97 94 96 94 96
30 46 54 60 64 67 68 69 72 74 79 79 75 76 78 82 88 90 92 92 93 92 98 98 98 98 100 98 93 94 93 95
32 34 45 48 55 61 67 69 75 79 78 78 79 79 81 87 90 93 93 95 98 98 98 98 98 97 99 96 96 92 95 96
33 31 40 53 60 68 70 75 78 82 83 83 85 85 88 92 96 97 99 99 98 98 98 99 98 97 98 98 98 96 97 96

GFSFLT1_sfc_rhum_063.txt.gz
RH
77 77 80 89 95 95 95 93 91 88 96 91 94 94 84 91 84 76 69 67 71 70 68 75 72 71 74 65 69 63 57 54
78 75 80 91 97 95 93 96 97 93 97 94 95 95 78 80 84 78 72 70 70 72 74 75 75 74 75 78 77 72 67 65
81 74 83 88 91 91 91 90 92 92 90 82 78 82 75 78 78 74 69 76 70 69 72 78 75 79 80 78 77 76 67 66
82 78 79 83 84 87 86 86 88 90 86 86 85 80 84 74 76 70 73 74 73 75 77 85 86 85 87 83 80 78 77 73
73 74 76 80 78 78 79 81 84 88 86 85 82 69 76 73 73 66 74 76 75 74 81 89 88 86 86 87 83 79 76 73
73 72 71 71 72 76 77 79 74 82 80 75 73 75 69 76 75 72 70 75 74 72 80 79 84 80 82 82 83 82 78 76
70 68 69 72 74 75 76 77 72 75 79 76 75 75 75 76 78 78 79 77 82 77 74 79 80 80 81 81 81 82 82 81
74 81 77 78 80 77 76 73 72 72 76 74 73 69 70 70 72 71 74 73 75 76 74 79 78 76 77 77 81 83 84 89
71 74 75 78 84 76 76 75 75 72 73 69 67 66 64 62 64 64 67 66 64 66 69 70 71 73 76 79 81 82 85 97
65 69 72 72 75 79 80 76 75 73 74 74 71 69 67 64 66 69 68 68 68 69 68 68 69 73 76 77 81 83 91 94
62 66 71 69 68 73 79 75 73 72 72 72 69 69 70 67 68 71 67 67 66 67 68 68 67 70 73 78 82 86 91 94
58 60 63 65 64 69 76 74 72 72 71 71 72 71 72 72 73 73 72 72 68 68 66 66 66 68 78 86 92 95 96 94
51 56 60 62 65 66 70 72 72 73 71 71 75 75 73 75 74 72 73 72 69 68 68 70 80 84 88 97 96 97 98 98
45 55 59 60 62 63 64 68 69 67 68 70 74 76 76 76 74 72 69 70 69 68 67 72 73 76 85 93 94 98 97 94
32 47 54 56 60 61 62 67 66 64 64 64 68 72 72 72 70 71 70 70 69 70 72 72 75 78 86 94 97 98 98 96
29 34 43 52 59 61 60 61 65 65 64 62 66 66 65 65 68 70 70 70 68 70 72 71 78 82 91 93 94 94 95 96
28 31 35 47 55 58 60 62 66 66 67 66 63 65 64 67 67 69 72 72 69 72 78 80 91 97 100 100 98 98 97 97
31 31 36 39 45 55 58 60 61 68 68 66 66 66 68 70 67 68 74 79 81 85 89 91 95 97 100 100 100 97 96 96
34 32 33 34 38 45 53 52 62 67 66 66 67 70 71 69 72 74 79 85 90 94 96 98 98 99 100 100 100 96 98 96

GFSFLT1_sfc_rhum_069.txt.gz
RH
34 41 48 72 77 85 89 88 93 95 93 93 95 95 97 95 92 74 64 58 62 58 54 62 54 51 47 46 47 42 41 39
34 43 50 71 90 93 92 93 95 93 91 94 95 96 94 95 88 77 59 52 54 56 52 63 66 60 59 59 54 58 50 45
38 44 52 66 85 88 86 84 85 91 74 73 76 81 79 73 77 82 53 49 47 48 53 56 60 59 63 62 64 65 56 58
38 43 49 61 76 76 85 81 77 78 74 70 74 78 81 77 76 82 71 58 54 54 54 62 64 56 60 67 66 64 72 62
34 41 45 55 71 79 77 78 75 71 71 65 72 65 78 73 70 72 69 70 62 57 59 67 69 56 60 64 60 64 76 81
34 39 39 43 62 76 77 81 77 73 70 67 73 76 57 68 64 69 74 70 69 59 74 79 77 70 71 73 74 76 80 79
31 34 36 37 50 67 75 82 84 79 73 75 73 71 62 69 77 63 74 76 68 67 76 81 77 79 78 78 80 79 79 76
31 33 36 36 45 56 63 71 78 84 84 77 68 70 70 67 70 69 70 81 78 66 77 75 71 68 68 70 84 74 70 73
30 31 35 35 42 49 54 58 64 76 85 80 70 65 61 58 57 59 69 72 73 66 68 69 62 64 64 64 67 67 68 80
29 30 34 36 39 47 53 51 49 62 75 82 77 68 68 64 64 66 64 62 61 66 65 63 61 59 58 58 54 61 69 76
27 29 34 35 37 42 50 50 45 47 63 73 73 67 65 60 60 64 64 65 62 61 64 63 62 62 60 58 53 57 63 66
25 28 31 34 36 39 45 47 44 44 49 55 65 64 64 62 59 57 57 61 62 60 62 61 59 58 58 57 56 56 59 61
24 26 30 35 37 39 41 45 45 44 45 49 56 62 60 61 60 57 56 55 56 55 53 54 52 51 53 54 56 52 56 59
20 26 29 33 36 39 39 42 42 41 42 46 53 57 59 60 60 59 56 55 53 52 49 51 50 52 52 53 54 55 57 58
16 20 25 29 33 37 38 41 43 41 40 42 49 56 56 57 57 58 59 56 56 54 52 51 53 50 49 50 50 55 57 57
15 16 20 24 30 34 36 37 41 43 42 41 46 52 53 54 57 58 58 59 56 54 56 56 55 54 50 55 52 55 57 60
17 17 16 16 21 28 31 36 40 42 45 45 44 47 49 54 57 59 60 60 58 58 58 58 61 53 68 78 71 60 61 63
22 20 17 18 18 19 27 30 34 41 44 44 43 45 47 52 54 55 57 62 63 64 62 60 61 61 80 83 85 65 68 76
30 25 22 20 22 19 21 21 30 36 39 42 42 45 46 47 51 53 57 60 65 66 65 64 63 59 82 90 99 71 69 71

GFSFLT1_sfc_rhum_072.txt.gz
RH
34 41 47 65 74 90 89 89 91 95 97 96 96 96 95 95 94 93 85 80 71 71 76 74 78 70 70 66 63 64 61 61
34 45 55 69 84 93 90 92 96 95 96 98 97 97 96 94 92 84 85 81 66 72 77 78 71 70 69 70 71 68 68 67
38 47 56 72 78 89 91 87 93 89 88 88 86 90 88 84 84 85 79 75 68 69 72 73 75 74 74 74 73 80 76 73
39 47 56 72 76 86 91 87 87 84 81 81 83 83 93 89 79 82 82 67 64 65 70 72 76 75 75 78 80 78 86 80
36 44 54 63 72 75 82 84 83 82 79 82 85 87 90 77 68 68 84 76 65 60 64 69 72 73 80 86 84 79 87 86
35 42 47 54 67 71 81 79 80 78 77 75 80 81 77 72 63 66 84 83 74 67 75 78 76 76 85 88 84 85 84 90
32 39 43 49 65 70 80 81 80 77 78 74 76 77 76 75 71 72 82 78 81 77 78 81 85 86 85 85 84 84 91 89
33 39 40 46 66 76 81 82 81 81 80 78 74 76 74 78 72 69 77 78 78 79 74 82 76 79 86 89 91 88 88 90
33 37 40 42 61 69 75 77 80 79 83 81 76 73 71 70 72 66 65 72 75 74 76 75 74 77 79 82 84 87 87 89
31 34 40 42 50 63 70 75 76 82 85 82 79 75 72 71 72 72 66 67 68 74 75 77 72 69 71 75 78 78 74 80
30 32 40 40 45 55 64 61 63 74 81 83 79 74 73 69 66 69 73 71 70 73 73 74 72 68 68 68 68 68 73 75
30 32 36 39 43 49 57 58 55 63 74 80 80 78 76 73 70 68 66 74 71 68 72 72 69 66 65 67 66 66 68 66
27 31 36 38 42 44 53 57 57 55 64 71 77 78 76 76 74 71 72 70 70 68 65 67 65 65 66 68 68 62 65 64
26 30 34 38 41 44 45 53 54 52 51 60 72 76 77 76 74 71 69 68 67 67 65 64 65 65 65 65 65 64 64 64
20 26 30 34 40 42 44 49 52 50 48 51 60 69 72 72 70 69 68 66 64 64 66 65 65 64 62 62 61 64 64 62
20 22 26 29 36 41 42 45 49 50 49 47 55 60 63 67 69 69 68 67 63 61 64 64 64 61 58 62 59 62 63 63
26 24 22 22 28 34 38 43 47 48 51 50 49 53 58 64 66 68 69 68 67 66 66 64 66 56 66 75 67 61 61 62
37 36 34 32 28 32 33 39 43 47 50 50 50 50 53 61 62 64 66 70 71 72 70 68 68 66 79 81 82 65 68 71
44 44 45 46 48 51 49 40 34 43 46 48 50 52 52 53 59 62 66 68 72 72 72 71 70 66 85 85 87 78 72 72

GFSFLT1_sfc_rhum_075.txt.gz
RH
52 68 75 91 94 92 96 97 97 96 98 99 98 98 96 95 94 90 87 80 78 75 88 86 86 78 90 62 62 70 63 61
53 74 80 95 95 94 94 98 97 96 96 98 98 98 98 96 94 87 85 82 78 77 81 90 94 88 86 69 70 69 73 66
58 85 85 95 94 92 93 94 95 93 91 87 89 94 94 90 87 85 79 76 76 74 76 82 91 94 92 87 77 85 80 74
60 81 89 94 96 93 91 87 93 89 88 87 89 87 93 94 90 84 76 74 75 71 72 78 83 82 84 83 80 75 83 80
57 71 90 91 89 88 88 87 88 85 87 87 92 94 95 86 86 78 75 80 79 74 75 81 77 72 76 88 85 81 88 89
58 64 82 83 83 89 91 88 86 83 86 84 88 90 85 81 77 78 82 80 77 72 77 80 86 89 91 91 91 89 91 93
52 60 69 81 85 79 85 87 85 84 86 84 84 84 84 82 79 77 82 80 85 76 84 84 86 91 92 89 93 90 94 91
53 62 69 80 83 78 84 82 90 83 86 84 80 81 81 76 70 70 76 84 94 90 89 90 90 83 92 88 88 90 95 94
51 55 63 79 82 79 77 83 84 82 83 82 78 75 79 78 72 66 68 77 80 82 80 86 86 90 85 91 94 91 92 96
49 51 56 76 84 85 87 82 72 83 82 83 80 80 76 78 72 67 67 72 74 80 84 81 84 81 85 88 86 87 84 89
47 48 52 68 76 84 85 86 84 83 85 83 79 78 76 73 75 71 67 64 71 77 81 81 80 78 78 80 81 81 85 84
45 46 48 54 70 77 81 86 84 87 88 86 81 79 79 74 74 78 74 68 67 73 76 80 79 77 72 73 72 76 78 76
42 44 47 52 57 69 74 75 81 82 85 86 86 81 78 79 74 72 77 78 71 74 76 74 78 78 74 72 70 63 73 73
45 47 47 50 52 60 65 68 67 73 80 84 87 85 79 75 77 73 72 72 79 76 74 77 74 74 73 72 71 71 69 73
41 51 48 48 51 56 60 65 65 64 76 78 85 86 84 77 71 77 75 77 73 77 76 75 76 74 70 68 67 70 70 72
43 42 42 46 59 56 52 59 63 61 61 71 79 82 81 81 80 81 79 78 76 74 75 75 73 70 68 71 68 71 72 73
50 51 57 60 60 71 68 61 60 60 60 59 62 73 79 82 81 81 80 79 76 75 75 75 76 70 76 83 76 70 68 71
59 63 63 65 66 65 68 69 72 76 62 58 58 63 71 76 78 78 78 80 79 78 76 75 74 74 85 85 87 71 74 74
67 71 74 74 74 72 71 73 74 79 81 78 74 73 64 67 72 74 77 78 81 79 79 77 75 72 87 88 88 77 71 71

GFSFLT1_sfc_rhum_078.txt.gz
RH
68 82 94 97 97 96 98 99 94 98 99 98 99 99 98 97 95 93 89 82 74 68 76 85 74 67 81 77 75 74 66 71
74 83 97 98 98 97 98 99 98 98 98 98 99 98 98 97 93 86 83 80 78 73 68 89 81 80 79 74 74 67 82 75
82 94 96 94 93 97 97 97 97 91 92 93 95 96 97 95 94 87 81 79 74 76 70 84 86 87 91 86 75 86 81 71
88 92 96 93 96 98 92 92 95 97 92 89 93 96 98 99 97 95 90 84 77 76 81 80 87 81 87 90 84 68 84 81
81 88 98 94 96 96 95 89 92 92 92 88 91 94 96 95 93 89 84 82 80 80 80 84 88 81 88 90 87 82 88 79
81 88 94 96 97 96 88 88 90 88 88 93 86 90 85 89 88 90 87 86 87 81 85 84 83 83 88 90 92 90 90 91
72 81 87 95 97 96 89 88 89 89 87 89 90 85 86 89 88 88 86 83 85 85 85 83 84 83 82 86 87 89 91 91
73 90 90 92 98 96 88 89 89 87 91 88 89 93 87 85 84 84 84 82 91 83 84 85 85 84 82 81 85 92 93 93
70 80 84 91 94 95 91 89 88 87 90 89 84 82 84 84 80 82 80 78 80 81 79 81 80 86 88 89 92 94 93 93
65 73 79 87 88 91 89 82 81 82 89 87 85 82 81 85 79 78 78 77 75 89 83 83 84 82 81 92 92 95 94 93
61 69 78 81 83 84 80 75 75 81 84 86 84 81 79 80 80 75 72 72 75 82 87 88 89 86 85 85 89 90 89 89
58 62 74 79 83 86 86 82 77 78 81 83 82 82 81 77 80 77 71 70 78 81 80 85 82 84 84 85 82 82 85 84
55 57 71 80 86 90 91 89 84 85 87 88 83 81 82 81 79 78 75 72 70 75 78 79 80 79 78 79 80 78 85 84
58 57 62 76 81 85 86 89 86 85 86 89 91 89 83 81 78 79 78 75 74 71 74 78 77 80 80 80 78 77 76 78
61 66 66 66 70 82 84 86 86 85 87 88 90 90 86 84 79 79 78 78 78 78 75 74 76 73 78 78 78 79 77 73
71 75 78 83 82 79 71 74 80 78 85 86 87 86 84 81 80 79 78 77 75 75 82 81 79 78 75 78 77 78 78 76
74 74 76 79 81 82 82 84 86 78 80 88 87 88 87 87 84 80 78 81 79 78 76 80 86 80 86 90 84 79 76 76
76 80 79 80 82 79 82 82 81 87 86 81 82 86 88 89 88 86 85 85 86 86 84 82 82 80 91 91 91 78 79 80
77 80 78 77 76 78 79 78 80 83 84 85 85 84 87 89 87 89 90 88 90 89 87 85 83 79 92 93 92 82 77 76

GFSFLT1_sfc_rhum_084.txt.gz
RH
34 68 93 96 97 97 96 98 98 96 99 99 99 98 96 96 96 94 91 95 96 93 90 90 85 80 79 73 73 82 80 83
42 91 97 98 99 98 95 98 98 96 99 99 99 98 98 98 96 96 95 93 96 91 85 88 79 77 76 74 71 82 89 89
89 97 96 97 96 95 94 88 94 94 98 92 96 99 98 96 95 98 96 96 89 80 81 79 73 77 79 75 69 88 88 82
94 97 96 96 96 97 92 89 85 88 94 94 98 99 99 99 99 98 97 95 86 76 79 73 70 69 74 72 72 75 80 86
85 94 95 92 93 91 90 89 84 88 95 94 95 98 98 99 99 97 97 92 84 80 72 68 69 69 71 79 69 72 82 84
82 93 91 84 87 90 87 92 89 92 95 92 94 95 96 98 99 98 98 95 88 86 86 76 76 77 82 86 89 88 85 83
80 94 87 83 84 85 89 94 86 88 92 94 92 94 98 98 99 98 98 97 96 92 91 90 90 90 91 89 89 88 89 85
90 97 94 87 91 89 91 88 87 91 95 90 90 91 95 95 96 98 98 97 97 97 92 92 94 94 92 89 90 89 90 89
79 92 92 85 88 90 88 87 85 88 94 91 86 85 91 92 91 94 97 96 95 96 96 95 90 94 96 90 90 92 93 93
73 91 90 85 87 88 87 88 86 88 91 92 90 86 84 89 91 90 92 96 95 96 95 96 96 94 89 94 91 90 93 96
83 95 89 87 84 87 89 94 94 86 94 92 92 91 85 83 87 96 95 90 86 90 94 93 90 90 90 84 88 88 91 94
85 91 94 88 83 85 93 96 97 97 89 93 88 92 94 96 94 95 95 94 92 89 89 92 89 89 90 88 87 87 87 87
84 92 92 89 87 85 88 98 97 96 97 95 92 93 92 89 88 90 94 92 94 95 92 90 90 89 88 90 92 90 92 91
96 91 89 87 86 86 86 97 96 96 96 94 94 93 91 94 93 89 91 91 90 94 94 94 93 92 91 88 87 90 91 91
94 96 96 91 88 84 85 92 94 95 96 97 98 97 95 92 89 90 89 84 87 91 91 91 93 94 93 92 91 89 88 87
93 92 95 94 94 92 92 95 96 95 97 97 97 97 96 96 95 94 93 90 83 82 83 88 89 89 89 93 92 93 93 93
90 90 90 91 90 90 89 88 88 94 97 97 87 97 97 97 96 96 95 95 95 94 90 83 83 77 88 92 89 87 85 86
89 89 88 85 83 80 82 81 83 85 86 82 84 88 94 96 95 95 95 95 94 95 95 92 90 88 95 92 92 78 79 82
84 84 84 80 75 74 74 71 74 77 80 80 80 83 86 86 89 93 95 95 96 94 94 91 89 91 96 96 99 93 84 82

GFSFLT1_sfc_rhum_087.txt.gz
RH
19 23 36 56 66 71 77 87 91 88 88 91 94 96 97 95 95 92 88 89 92 93 93 97 95 87 71 61 68 65 66 63
21 26 50 68 75 78 80 88 90 92 95 98 98 98 97 98 95 91 90 94 94 95 94 94 92 81 68 70 70 74 68 64
24 44 66 72 75 77 83 78 87 84 82 88 90 97 96 94 94 90 92 93 96 96 94 91 86 80 74 72 72 70 67 69
23 53 69 74 78 83 84 75 76 82 81 82 88 93 97 98 98 98 95 93 94 95 91 89 80 78 73 70 70 69 75 70
25 46 67 74 78 84 80 76 74 74 77 76 83 84 91 97 95 97 98 96 97 92 90 84 78 77 74 71 65 69 74 74
26 50 62 71 82 85 83 78 74 75 88 85 85 85 90 92 99 98 97 96 92 87 84 77 75 74 77 77 78 76 73 71
36 60 70 70 79 86 86 89 78 82 86 86 84 86 89 97 99 98 98 97 94 85 80 80 76 75 78 77 78 79 82 75
62 73 72 75 85 85 91 88 77 82 87 87 86 86 85 90 98 97 97 97 97 94 88 85 85 84 86 83 81 79 83 80
57 68 73 75 80 86 87 84 75 83 85 86 86 85 88 89 91 98 96 95 94 92 91 89 92 92 92 91 84 81 84 83
49 66 74 76 79 87 85 82 75 84 84 86 85 84 88 90 89 93 98 96 96 94 92 91 89 86 85 89 90 86 86 83
49 59 75 75 73 84 86 80 77 80 83 84 83 83 81 85 89 92 94 98 96 96 94 92 93 90 81 80 85 87 78 82
71 70 72 71 79 86 87 84 79 87 85 78 87 85 87 82 82 83 89 94 95 96 95 95 94 92 83 83 78 86 91 86
78 78 79 80 85 88 89 86 82 82 79 79 83 90 89 88 83 82 84 80 80 85 92 95 95 95 93 91 83 75 86 88
83 86 86 85 86 87 86 84 83 83 79 79 85 88 89 90 89 88 86 80 78 78 79 82 85 91 94 92 89 83 86 86
90 85 86 86 87 85 86 82 77 78 78 76 84 87 84 85 84 85 86 82 77 75 76 76 78 77 77 84 87 88 88 88
89 93 94 92 90 86 78 82 78 76 77 75 75 77 76 77 78 78 78 78 75 75 74 74 75 75 72 78 79 85 85 84
87 88 89 90 89 90 88 90 86 79 85 87 85 83 80 81 81 81 82 80 75 74 73 74 77 78 92 98 90 85 83 82
87 89 90 87 85 81 85 82 82 82 84 84 86 90 91 92 92 90 88 89 89 90 84 80 83 86 95 97 98 78 80 83
88 87 88 83 81 78 80 78 79 80 81 81 81 84 86 85 88 92 95 94 96 94 96 93 91 88 95 95 96 88 86 84

GFSFLT1_sfc_rhum_093.txt.gz
RH
10 11 10 9 10 16 25 39 68 83 81 80 83 80 81 89 91 85 87 86 84 81 90 93 91 96 96 93 96 93 82 60
9 11 12 12 13 17 27 39 64 80 85 88 85 88 88 89 89 87 88 88 89 88 89 94 93 96 95 91 94 93 87 53
8 9 12 16 16 20 30 35 48 75 79 71 62 71 70 76 83 90 88 90 91 92 89 94 94 94 96 94 93 93 89 66
11 10 12 16 19 25 29 34 42 70 69 60 60 69 79 88 87 86 88 86 90 92 91 95 94 94 95 94 91 88 84 74
18 13 13 15 19 27 31 34 44 70 60 52 61 74 80 76 78 81 92 90 90 91 96 94 95 94 93 93 88 86 75 70
22 16 14 12 17 26 36 36 41 58 54 49 58 62 54 58 72 81 87 94 92 96 95 96 95 95 94 92 90 81 72 67
24 19 16 13 15 32 42 42 42 50 52 53 56 58 53 51 69 81 90 96 97 98 96 95 94 93 94 93 88 80 73 68
29 25 17 16 20 38 48 46 44 49 54 56 55 56 56 59 64 78 90 97 98 98 97 96 96 93 91 90 88 79 72 69
33 28 28 26 31 54 58 46 45 48 55 54 53 52 57 56 71 82 89 96 94 95 94 94 94 92 92 91 86 77 75 75
41 36 30 34 47 69 74 49 45 51 55 57 57 59 61 67 74 85 93 94 96 97 97 96 95 93 91 89 81 82 78 79
61 44 31 36 58 73 79 60 53 53 56 57 60 65 63 68 81 92 94 96 96 96 97 97 96 96 93 89 83 80 77 78
73 64 44 40 55 70 79 66 57 59 55 62 68 65 66 72 75 90 94 96 95 93 95 96 96 96 95 92 84 82 79 81
75 79 70 63 68 72 80 70 64 66 58 66 69 65 70 71 77 92 92 94 94 92 94 95 93 92 90 85 85 84 86 89
76 78 87 79 78 81 80 77 71 66 65 70 67 66 72 75 77 83 93 92 93 91 93 91 86 88 89 88 86 87 86 83
79 82 82 84 85 82 83 81 74 66 66 68 65 64 68 69 68 75 87 86 92 93 91 90 90 92 88 89 90 87 85 77
81 85 85 84 86 88 83 81 78 71 73 67 70 63 65 67 70 68 68 76 82 83 83 85 89 90 90 92 89 90 88 77
80 84 84 87 87 88 89 92 82 62 72 77 68 62 69 72 72 75 76 73 71 77 76 76 83 78 96 97 96 87 85 82
82 86 89 89 90 88 88 88 84 85 86 86 85 86 89 92 83 85 86 86 84 86 86 87 87 86 97 96 97 89 92 91
88 90 92 93 90 92 86 80 82 84 86 86 84 85 87 87 88 91 94 93 94 93 92 88 87 86 96 97 97 86 88 89

GFSFLT1_sfc_rhum_096.txt.gz
RH
13 14 13 13 14 19 36 70 81 83 80 83 86 82 79 78 84 84 82 89 87 89 91 94 94 97 97 97 97 98 94 93
10 16 22 24 27 29 36 59 83 83 82 88 92 91 86 89 89 86 85 88 87 87 92 94 95 95 96 95 96 96 98 95
10 12 21 29 27 30 38 48 82 82 80 80 81 86 88 89 93 92 91 90 90 90 90 92 97 96 97 96 95 97 96 95
15 17 22 27 32 37 36 41 75 77 78 79 78 81 83 92 95 96 92 92 92 91 90 92 93 93 97 96 95 92 96 95
24 23 25 27 32 39 36 39 43 74 75 79 80 80 86 83 87 88 93 88 90 91 92 93 95 94 95 95 94 92 92 93
30 29 26 22 27 45 45 41 40 73 75 73 75 76 78 80 84 88 89 90 90 92 92 95 95 95 93 94 96 94 94 91
31 30 29 24 27 41 48 45 48 72 73 74 70 78 74 74 80 90 92 94 95 94 96 96 96 95 95 94 95 93 92 90
45 34 29 27 29 43 51 46 47 68 72 69 70 73 73 71 80 87 92 97 97 96 98 98 97 94 94 94 94 93 91 92
53 62 46 34 37 51 54 50 48 59 65 66 70 76 71 72 78 87 92 94 94 95 98 96 94 95 94 94 95 93 91 93
62 63 62 38 60 67 66 56 50 56 65 76 73 72 70 76 83 85 91 91 91 96 97 97 96 94 95 95 96 92 90 91
69 67 71 66 66 72 73 70 61 66 74 75 74 76 73 82 84 88 88 94 95 98 99 97 98 96 94 95 94 93 91 94
72 74 72 78 68 73 76 73 76 76 71 74 79 76 79 81 84 91 93 96 96 97 97 99 97 97 96 95 95 92 91 92
72 78 75 77 87 71 77 76 82 79 75 74 81 82 80 82 84 91 95 96 94 95 96 98 99 98 95 95 95 92 92 94
71 78 81 82 83 86 76 87 85 79 74 79 81 85 81 80 88 91 93 95 95 94 95 96 97 98 98 97 96 96 96 96
72 80 84 84 84 85 90 90 85 83 78 78 82 83 82 81 84 91 93 92 94 94 93 94 95 96 96 97 97 97 96 93
74 82 85 86 86 85 83 85 89 86 83 78 82 80 81 76 84 89 90 91 90 89 91 91 93 92 91 94 92 94 94 94
78 80 86 88 89 89 86 88 89 87 84 84 82 80 78 83 83 83 89 91 90 91 93 92 96 85 97 100 96 94 94 95
83 84 88 91 92 92 92 90 87 89 88 89 90 91 90 94 90 91 93 95 90 91 90 88 91 89 98 97 100 96 95 96
86 86 90 91 89 92 91 88 88 88 88 89 88 89 91 90 90 93 95 94 94 94 94 93 93 92 98 99 98 90 92 93

GFSFLT1_sfc_rhum_099.txt.gz
RH
13 14 14 19 16 17 54 83 83 85 89 93 94 91 93 94 97 96 95 94 92 94 97 97 96 97 97 96 96 96 96 96
13 16 20 17 18 17 61 84 85 85 90 96 96 94 92 92 90 93 84 93 92 91 94 96 95 96 93 95 96 98 99 97
12 12 14 26 24 28 66 79 88 82 87 85 90 92 93 90 98 94 84 91 92 94 94 95 95 96 97 97 96 98 97 97
13 12 13 20 29 29 70 83 88 85 88 89 96 96 95 99 98 98 97 91 89 90 94 95 96 94 96 97 96 94 97 98
26 32 38 32 29 32 64 86 88 87 86 88 92 92 92 90 89 91 96 96 95 92 94 95 96 95 96 97 95 94 93 95
54 51 37 34 32 39 53 86 86 86 87 88 87 92 86 86 94 97 95 96 96 96 94 96 96 95 94 94 96 96 94 92
58 59 63 63 49 41 47 77 83 87 86 89 88 86 92 88 94 96 97 96 95 94 93 93 94 94 94 94 94 93 94 91
67 69 70 71 72 49 56 57 86 87 87 87 87 87 87 90 93 96 98 97 98 98 96 97 97 94 93 93 94 94 93 94
73 72 75 77 75 62 55 80 88 89 88 87 90 85 80 79 87 95 96 92 90 88 95 94 94 94 94 93 94 95 93 95
76 76 76 80 86 88 87 77 83 87 90 90 91 85 85 87 88 92 97 97 97 97 96 95 97 96 95 95 96 96 95 93
75 75 78 80 87 89 92 90 89 83 87 83 83 84 85 89 87 94 95 96 95 98 98 97 97 96 96 97 97 95 96 93
73 75 79 80 84 87 88 90 92 92 81 81 84 87 91 91 91 93 94 96 97 98 98 98 98 97 96 97 97 95 96 94
70 74 76 80 82 79 80 84 90 92 87 85 88 91 88 91 94 96 97 97 97 97 98 99 98 98 97 97 98 96 94 96
73 74 81 81 82 82 80 83 93 90 88 87 91 90 90 93 94 96 96 97 97 98 98 98 98 99 97 96 94 95 92 93
75 79 83 83 83 84 83 84 87 91 89 88 92 92 91 92 92 95 95 94 96 96 94 96 97 98 99 98 97 97 97 96
79 83 87 86 87 86 84 84 87 88 93 88 93 88 87 88 94 95 94 94 93 92 93 96 97 97 95 98 97 97 97 99
81 83 84 88 88 90 87 87 88 86 89 94 92 90 88 91 94 95 96 95 94 94 95 94 96 88 98 100 99 99 97 97
85 86 87 89 92 90 91 88 84 87 88 88 90 91 92 93 90 91 93 96 92 94 94 92 95 93 98 98 100 97 97 98
86 88 89 91 91 90 88 84 86 87 91 90 88 90 91 92 92 94 95 94 95 95 95 95 95 94 99 99 98 94 95 96

GFSFLT1_sfc_rhum_105.txt.gz
RH
14 17 19 21 20 23 28 73 88 90 92 96 97 98 96 96 96 97 97 96 96 96 98 98 96 96 98 96 95 96 94 95
17 19 23 24 24 25 33 60 87 92 92 97 97 97 97 98 96 95 97 95 96 96 96 97 97 95 95 96 97 97 98 97
16 16 18 18 21 31 38 59 81 92 86 87 89 92 96 94 96 96 94 96 96 95 95 97 97 96 96 97 96 98 97 97
15 14 18 31 31 30 40 56 71 86 84 87 98 98 99 99 99 98 96 95 95 95 95 96 97 96 98 97 96 95 98 98
75 87 89 92 92 92 58 48 72 82 85 88 93 90 92 88 94 95 96 95 95 94 95 95 96 96 97 97 95 95 94 98
81 85 89 89 90 96 96 59 66 76 87 85 90 89 84 93 95 96 96 98 96 95 95 96 97 96 96 96 97 96 95 93
76 76 77 80 83 88 93 92 75 81 89 87 90 90 92 97 96 96 96 97 97 96 95 95 96 96 96 96 96 96 96 95
84 86 85 83 80 81 82 88 96 90 92 89 90 90 94 94 94 93 96 96 96 98 97 98 97 96 95 95 96 96 96 96
86 85 86 84 82 81 83 84 90 91 92 88 91 94 96 94 94 92 94 93 93 92 97 96 95 96 95 96 96 96 96 96
88 84 84 86 86 84 85 84 87 92 91 91 94 96 97 96 97 95 95 95 97 97 95 98 97 97 97 97 97 97 97 96
87 83 82 81 85 86 86 85 86 89 95 96 96 97 96 97 97 98 97 97 97 98 98 96 96 97 96 96 95 92 96 96
77 74 78 80 82 84 86 85 88 91 92 95 99 99 99 98 97 98 98 98 97 96 96 95 96 97 98 97 95 94 96 95
72 74 77 83 83 81 84 87 90 90 90 92 98 98 98 98 99 98 98 98 98 98 99 99 99 99 98 98 98 94 95 96
73 76 80 82 85 85 83 85 90 89 90 93 99 98 98 98 97 97 96 96 97 98 97 98 98 98 97 96 97 97 96 96
77 79 83 83 84 85 84 85 85 88 88 88 94 97 98 98 97 96 97 96 98 98 98 98 98 98 98 98 98 97 94 94
81 83 84 84 85 84 82 83 84 88 89 88 93 92 97 98 97 97 97 97 96 97 97 98 98 93 89 96 96 98 98 98
82 81 82 86 86 86 82 83 86 88 94 90 88 87 87 92 95 98 95 94 92 92 92 93 94 89 98 99 99 99 99 98
87 90 90 92 92 86 84 82 80 84 90 89 89 89 88 90 89 90 94 96 93 95 94 93 96 94 98 99 100 96 98 98
88 90 91 94 84 84 80 76 80 82 87 89 91 88 89 89 90 92 94 94 96 96 96 95 96 94 97 98 98 96 97 98

GFSFLT1_sfc_rhum_111.txt.gz
RH
15 18 17 17 20 26 30 32 43 71 77 84 86 88 82 76 76 74 76 80 82 85 90 94 94 96 95 95 92 86 81 80
18 47 57 48 36 34 28 31 42 53 69 83 86 89 84 81 80 79 79 81 85 88 88 94 94 94 95 95 94 94 94 91
55 62 66 70 72 72 70 60 37 36 52 65 67 74 81 81 86 86 83 85 84 89 88 92 93 94 96 95 95 97 94 94
68 65 66 67 68 70 69 68 69 63 38 54 69 76 83 94 94 92 90 86 83 90 88 90 92 91 94 94 94 94 96 97
65 66 66 66 67 67 67 68 68 65 64 46 69 68 72 75 79 82 90 90 86 86 88 88 92 91 93 93 92 92 92 96
72 70 69 67 68 71 72 70 69 67 71 60 68 71 66 64 75 83 88 91 87 84 89 90 92 92 93 94 95 94 91 90
70 68 67 72 69 75 76 76 72 71 75 69 72 74 69 69 76 87 88 92 93 93 89 91 91 92 93 93 93 94 95 91
79 76 77 80 81 84 82 80 81 78 81 68 73 75 75 76 76 77 83 90 96 94 93 94 92 91 92 92 93 95 94 95
82 79 81 88 88 89 88 87 86 84 87 88 71 77 78 76 75 74 78 83 89 90 93 94 93 94 92 92 90 95 94 95
89 81 81 82 87 91 91 89 88 88 91 92 84 80 86 84 80 79 82 81 89 95 91 93 93 94 93 91 94 96 96 95
93 92 94 85 87 91 89 88 90 89 90 92 93 88 90 89 88 83 81 83 87 92 92 91 94 95 94 95 95 95 97 97
96 96 96 98 96 92 87 85 87 91 90 91 95 97 94 91 93 86 82 89 91 91 87 88 93 98 97 98 97 97 98 97
96 97 97 96 95 96 90 87 88 89 90 91 94 95 97 97 98 97 95 94 92 90 92 96 98 98 97 98 98 98 98 94
89 94 92 93 86 86 87 86 88 87 88 92 93 95 96 98 98 98 98 98 98 97 94 95 96 98 98 99 98 98 96 96
84 82 85 81 80 86 95 85 89 86 86 89 93 94 95 96 97 97 98 98 98 97 96 96 97 96 93 93 91 93 92 90
88 90 91 84 83 81 80 83 85 95 86 89 93 92 90 92 93 93 93 93 92 91 92 91 91 88 88 94 91 92 90 89
86 85 84 87 88 91 85 84 87 83 90 92 88 90 90 92 92 92 92 92 91 90 92 92 92 83 96 97 98 97 95 93
88 89 89 91 92 91 92 90 88 84 90 95 96 93 97 100 90 91 92 96 92 95 93 90 92 90 96 96 97 92 94 94
83 82 83 89 81 86 77 72 83 91 84 90 95 95 95 99 99 97 99 96 97 92 92 90 90 88 94 96 96 92 94 94

GFSFLT1_sfc_rhum_114.txt.gz
RH
11 13 17 25 28 33 32 26 28 32 47 55 50 56 57 53 50 50 57 63 68 70 56 74 85 90 85 81 78 68 67 70
33 39 39 41 42 45 44 49 48 31 26 44 46 58 58 55 52 53 55 60 68 65 62 70 90 91 88 85 89 86 84 75
44 44 45 48 49 49 51 49 48 48 33 25 40 44 52 53 51 56 58 62 64 65 66 75 88 90 93 89 90 94 92 86
47 48 49 50 52 53 52 51 50 50 52 43 27 42 46 53 63 68 64 62 65 71 72 81 90 87 93 91 88 90 94 94
43 47 50 52 53 54 55 55 54 52 52 51 50 31 43 50 58 65 64 68 69 69 77 82 87 88 90 92 84 84 87 94
45 46 48 47 50 54 59 59 58 58 58 57 55 46 40 41 52 60 66 78 81 79 82 82 87 84 90 90 90 88 86 82
46 45 47 48 48 55 60 63 62 64 68 66 65 63 48 43 46 56 61 79 89 86 86 85 86 87 89 91 89 87 86 86
55 54 52 56 59 63 66 67 72 71 76 75 74 69 60 54 47 52 61 83 89 91 89 89 88 86 87 90 91 88 88 90
60 64 63 63 67 70 73 77 81 78 80 81 79 71 55 50 49 46 54 77 80 83 88 88 87 84 88 88 92 92 91 92
66 65 66 66 76 75 81 87 83 84 85 87 88 77 68 56 56 58 61 73 78 85 89 90 90 88 89 92 94 95 94 93
78 77 82 74 82 83 82 90 85 86 88 89 88 87 85 61 74 78 73 72 71 76 86 86 91 91 92 94 96 92 92 93
98 98 92 95 91 91 90 90 89 89 88 91 93 93 78 67 81 82 74 76 74 81 82 89 90 93 92 92 93 92 93 88
96 99 98 99 97 97 97 95 94 88 87 90 94 93 95 88 84 82 84 80 84 85 89 93 92 92 90 92 96 94 91 95
83 91 95 97 93 97 95 91 96 86 85 89 93 94 94 96 96 97 97 97 98 98 96 96 95 94 93 97 97 97 96 96
82 84 91 92 94 95 97 90 89 88 86 87 93 94 94 94 94 95 96 96 97 96 94 92 91 90 90 91 94 96 94 91
81 87 92 92 92 90 87 87 92 97 88 88 92 91 89 91 93 93 93 93 92 89 88 88 88 87 89 92 87 88 88 81
82 85 86 88 87 92 87 90 93 87 94 96 88 95 91 90 93 92 91 91 90 90 90 90 92 86 96 97 96 93 90 89
83 86 86 88 92 91 91 92 94 92 94 96 95 95 99 98 95 98 95 95 93 94 93 92 94 93 96 96 96 91 92 93
78 78 80 86 75 76 68 63 72 88 89 94 95 95 95 97 96 96 98 97 96 93 95 95 95 92 94 95 93 90 92 93

GFSFLT1_sfc_rhum_117.txt.gz
RH
22 26 30 29 31 34 35 34 39 39 32 38 40 47 51 58 52 49 59 60 69 69 57 70 74 66 68 65 72 74 71 67
27 31 33 36 38 40 38 42 44 41 38 27 31 47 49 52 58 54 54 55 63 68 60 65 74 78 80 78 70 75 78 74
29 32 35 40 41 43 45 44 43 43 38 36 30 30 36 44 49 55 56 56 60 62 64 57 73 76 88 85 83 82 73 74
33 33 35 38 41 45 45 46 46 47 48 43 39 39 35 43 53 54 55 57 60 65 64 61 62 74 78 86 88 86 90 85
34 36 37 39 40 43 45 47 49 48 50 50 52 44 37 33 47 54 53 60 60 62 66 66 67 74 78 82 82 86 86 92
38 39 40 38 39 43 48 51 52 51 53 58 58 56 47 42 40 54 59 61 64 63 67 70 73 76 78 81 86 89 84 81
40 40 43 43 43 47 52 54 53 54 57 61 67 69 61 53 50 47 60 61 63 69 69 75 78 80 80 79 85 87 87 84
45 47 49 52 53 54 55 56 59 58 61 63 67 70 70 65 59 55 59 63 66 72 76 84 80 80 80 81 89 88 87 88
53 57 57 60 62 62 64 64 66 63 67 68 70 73 74 65 59 54 59 54 61 70 76 82 83 79 81 85 86 88 89 89
62 61 64 66 69 71 72 74 73 73 78 81 81 79 80 76 66 60 54 57 56 70 76 85 86 86 85 87 89 90 90 90
70 72 75 74 82 79 75 79 76 78 82 84 83 84 83 80 73 65 60 58 58 70 77 87 90 90 89 89 90 88 91 90
94 96 84 93 87 85 82 86 81 84 87 87 89 89 89 87 79 71 64 64 62 64 76 87 89 90 91 91 90 90 92 92
85 98 98 100 99 99 96 95 91 96 93 88 91 91 91 91 87 68 67 67 64 65 70 76 80 92 93 94 93 93 94 87
68 86 94 99 94 97 96 97 97 98 90 90 90 92 92 93 94 94 95 79 78 87 87 96 96 97 97 96 93 91 91 93
73 81 89 92 96 98 97 96 97 98 94 87 91 91 91 92 92 92 93 92 92 93 92 93 93 92 92 94 98 98 98 98
83 88 89 86 90 96 96 96 97 98 98 92 93 89 87 89 91 91 91 92 91 92 93 93 92 92 94 97 96 95 95 93
84 82 75 82 88 96 92 95 97 96 95 97 95 94 89 89 90 90 89 90 90 90 92 92 95 93 97 98 95 93 90 90
76 81 84 84 85 78 84 89 96 95 95 97 97 98 97 96 93 93 93 94 91 93 93 91 94 94 97 96 95 92 93 92
76 76 75 77 66 69 64 60 69 83 85 92 96 95 96 98 97 96 96 96 95 95 95 94 93 94 94 98 98 96 99 92

GFSFLT1_sfc_rhum_120.txt.gz
RH
29 31 33 34 38 45 47 48 54 58 55 57 48 47 69 71 69 62 72 78 78 78 78 80 78 82 84 74 83 89 83 86
27 34 35 37 41 45 46 51 56 53 52 54 52 50 47 65 65 67 68 70 80 81 77 80 80 77 80 80 82 88 88 87
31 33 36 42 43 46 47 47 51 52 51 51 55 57 55 55 60 66 66 70 72 79 78 75 80 78 79 89 84 86 86 88
35 36 41 44 46 47 44 47 49 53 57 52 51 52 51 52 52 54 67 66 69 76 78 75 74 80 81 83 87 85 89 90
36 38 41 44 46 49 50 50 51 50 56 58 64 64 66 61 60 53 60 66 65 68 76 76 73 79 82 85 82 79 86 89
41 42 43 43 47 50 54 55 52 54 56 61 62 67 66 62 62 62 61 63 69 67 73 76 80 81 82 86 86 84 80 79
44 44 46 48 50 54 57 58 56 57 60 62 65 67 67 72 72 71 67 71 69 68 68 76 78 83 82 88 88 88 84 80
52 53 55 56 57 59 59 60 62 61 63 65 65 67 70 71 74 75 74 71 75 69 72 76 78 81 79 85 90 88 86 84
59 61 60 63 63 62 66 70 71 66 68 68 68 70 72 70 70 74 74 73 69 71 72 69 74 80 82 85 86 88 87 86
66 64 68 70 70 72 73 78 76 76 77 78 77 76 76 77 76 76 77 74 68 69 74 72 75 83 84 86 88 91 90 87
74 78 80 78 78 81 85 83 87 87 84 85 82 82 80 79 80 82 82 78 76 71 81 75 76 87 90 93 89 90 91 90
89 94 87 91 89 93 93 90 94 92 88 87 87 86 86 85 87 87 85 83 80 76 75 87 83 90 87 88 92 91 93 91
95 99 98 99 99 99 99 97 96 98 96 86 88 88 87 89 91 93 91 86 81 80 74 79 81 85 89 90 91 93 93 93
89 94 96 97 96 99 99 98 97 99 98 93 89 91 91 92 91 91 91 92 94 94 94 96 98 97 94 94 93 93 94 92
89 90 94 95 96 99 98 97 98 99 99 97 92 94 93 92 90 88 90 89 91 92 93 94 95 95 96 97 96 96 96 96
90 94 94 88 90 95 97 96 96 98 97 97 98 97 89 87 88 88 87 92 96 91 90 92 93 93 96 96 95 95 96 95
87 82 75 82 80 90 88 95 96 97 96 98 98 99 93 88 88 89 92 92 92 90 92 91 95 93 97 96 94 94 92 94
73 74 76 79 72 73 74 74 82 88 94 95 96 96 97 98 94 90 93 94 90 92 93 92 94 96 99 97 94 94 94 94
74 76 73 76 63 67 64 62 70 79 82 86 88 94 96 97 97 94 96 96 94 93 93 93 92 93 92 95 95 97 95 96

GFSFLT1_sfc_rhum_126.txt.gz
RH
46 48 47 50 52 52 54 55 58 58 59 60 61 64 63 67 74 84 76 82 83 92 92 98 97 95 95 94 93 94 91 91
48 48 50 53 55 55 56 58 59 59 60 64 62 66 64 64 67 68 77 82 85 86 92 88 93 93 92 94 94 95 96 93
50 53 56 58 59 59 58 57 58 58 58 60 62 64 63 64 64 69 75 77 78 82 85 91 86 94 93 97 95 95 95 97
60 59 61 61 63 63 60 60 59 60 60 58 60 60 61 66 68 68 68 70 74 76 79 82 89 88 91 90 94 93 88 97
63 64 65 65 65 63 63 62 62 57 62 65 68 72 74 68 69 68 66 70 74 75 77 80 87 92 91 89 90 90 85 86
67 67 64 64 67 69 69 68 65 62 63 66 72 73 71 69 70 69 68 68 71 73 78 82 84 88 89 86 88 92 86 83
70 68 68 72 73 74 74 72 72 69 70 70 73 76 75 75 74 75 73 71 73 75 76 81 84 85 83 90 84 86 87 84
82 83 82 80 80 73 66 70 75 71 69 70 74 76 77 79 77 76 75 75 77 76 81 85 84 82 85 88 90 87 89 90
87 85 85 81 76 72 79 79 77 70 70 71 74 79 81 80 78 76 76 76 72 76 79 81 81 81 81 84 91 91 84 89
90 87 77 79 77 79 91 85 82 76 75 81 85 87 83 84 80 78 79 77 74 77 78 83 83 85 85 86 91 93 96 98
91 86 85 86 81 85 94 92 88 90 90 89 92 95 88 85 83 83 84 84 84 84 83 82 82 84 87 85 89 90 96 97
96 93 90 89 90 90 98 96 96 93 89 95 96 96 94 87 84 86 87 87 87 90 86 87 86 85 89 89 87 92 92 94
96 96 95 93 94 95 94 91 93 92 90 92 96 97 96 92 90 90 88 87 86 86 87 89 89 91 95 98 98 93 93 94
93 93 95 95 94 93 92 95 95 92 93 94 95 97 96 97 93 90 88 87 86 87 87 90 90 92 92 91 92 96 93 94
94 91 94 92 86 91 95 95 96 94 96 95 95 97 98 97 96 90 89 88 88 88 88 89 91 90 88 87 88 92 91 93
83 90 91 86 85 85 83 85 90 94 96 95 96 96 97 98 95 94 94 94 95 91 88 88 88 89 89 90 88 90 90 90
76 75 78 81 84 85 81 83 86 80 87 88 90 92 94 96 97 95 95 95 95 95 96 95 94 94 91 91 90 93 90 90
75 80 81 87 89 81 85 83 82 78 82 82 84 87 90 91 87 91 92 94 94 96 95 96 97 97 98 94 91 94 94 96
77 84 85 88 84 82 76 76 78 78 77 81 79 84 87 88 88 88 90 90 92 93 94 92 95 97 99 100 98 97 95 94

GFSFLT1_sfc_rhum_132.txt.gz
RH
58 59 57 59 61 61 62 62 64 64 64 64 63 66 66 66 76 75 78 90 83 95 95 97 97 97 92 94 97 96 96 94
58 58 60 63 65 68 67 70 70 68 68 72 67 67 68 68 65 70 78 74 85 89 90 92 92 95 93 91 92 97 94 93
62 62 66 71 72 75 74 72 71 68 69 71 70 70 69 68 68 68 72 77 74 71 80 89 91 91 94 92 94 92 91 90
73 69 74 77 80 82 74 70 68 69 70 70 71 71 71 73 73 72 69 69 74 78 81 85 88 91 92 93 94 89 89 90
76 77 79 82 82 77 67 66 71 67 67 71 72 74 78 74 77 74 74 75 75 76 77 79 84 86 89 91 88 96 91 89
84 84 84 82 72 65 72 68 69 62 62 64 69 72 71 70 71 71 69 70 75 77 79 82 86 89 90 90 91 90 93 91
84 82 73 69 64 69 76 73 68 66 72 69 66 70 69 70 70 73 79 76 75 74 75 80 84 86 88 90 92 92 92 90
94 83 81 73 77 84 79 77 80 76 73 76 77 78 80 82 81 83 81 80 79 77 77 81 78 74 86 86 91 89 92 95
96 81 88 80 85 84 79 84 78 75 74 77 78 79 86 88 83 87 86 83 81 78 81 83 83 80 77 82 92 92 88 90
96 85 91 90 84 90 90 84 80 78 82 81 78 82 94 95 94 94 91 86 81 82 86 88 87 87 83 84 91 85 92 94
96 95 94 91 91 90 91 91 87 87 87 81 82 84 96 95 95 96 96 94 90 88 88 88 88 91 89 86 88 88 92 93
98 97 94 94 93 91 93 93 91 90 86 90 92 94 96 95 95 96 96 96 95 90 88 88 89 90 91 92 91 90 91 90
98 97 96 95 96 92 92 90 90 91 89 94 95 95 94 95 96 95 96 95 96 90 87 86 87 88 89 91 93 93 93 93
96 94 96 97 95 93 93 90 90 89 93 95 95 94 95 96 96 96 94 93 96 95 88 90 88 89 89 89 89 90 92 93
91 94 93 92 92 92 93 91 90 89 88 89 93 95 96 96 96 95 94 91 92 93 95 92 89 87 87 86 87 90 90 91
83 88 91 87 86 91 85 89 89 88 88 89 90 88 88 89 90 90 89 92 92 88 85 87 90 92 93 88 86 89 90 91
73 72 72 76 78 82 78 86 89 85 89 89 88 87 88 89 89 88 88 87 89 88 89 89 94 94 90 92 88 90 89 91
70 76 80 82 86 78 86 81 83 83 87 87 88 87 88 90 88 88 91 92 90 89 89 86 86 90 84 84 87 95 94 95
72 82 81 88 84 84 76 72 74 78 79 86 86 89 88 89 90 91 90 91 92 92 90 89 85 82 75 80 81 89 91 94

GFSFLT1_sfc_rhum_135.txt.gz
RH
48 47 48 49 51 56 57 57 61 61 55 55 50 50 50 51 51 51 65 63 61 67 68 71 70 71 80 88 90 90 88 89
47 50 51 53 55 57 56 58 61 57 54 58 55 56 56 53 53 57 61 62 65 64 62 66 68 68 70 77 91 91 91 89
51 51 53 58 58 59 56 55 58 57 54 54 57 58 55 57 57 60 63 64 66 62 64 66 68 72 72 72 80 93 90 87
56 56 58 57 58 59 56 58 57 56 58 50 52 52 54 57 59 59 60 64 66 70 68 68 70 71 73 72 74 83 95 84
56 58 59 58 57 55 57 61 56 54 57 59 62 62 64 61 62 61 62 65 66 67 72 71 71 69 73 71 63 73 88 90
60 62 58 56 55 56 60 60 58 60 63 65 66 65 61 60 63 67 67 65 65 66 69 71 73 71 73 75 77 77 77 93
61 61 58 58 57 59 60 62 62 63 66 64 67 69 70 70 72 72 72 70 69 69 71 72 73 74 75 77 77 76 73 82
62 61 60 61 61 61 61 64 67 65 65 66 67 67 71 77 79 79 79 79 76 73 74 76 76 75 76 78 81 82 86 90
63 63 63 62 62 62 65 69 70 66 67 68 66 67 70 78 78 82 88 94 92 81 79 81 82 83 84 83 82 83 79 84
68 65 64 59 61 64 71 73 70 71 72 71 67 69 76 80 80 86 92 93 94 95 91 87 85 87 87 88 88 84 85 82
74 72 68 61 62 64 70 69 74 78 74 71 70 77 80 88 89 90 91 94 97 96 95 89 86 87 90 92 88 84 86 87
87 83 72 77 74 76 82 84 83 82 74 74 84 90 93 93 92 94 94 95 97 96 96 93 89 89 89 90 91 88 87 86
78 84 88 88 91 89 89 83 82 82 75 80 92 94 92 93 93 94 95 96 96 96 96 93 89 88 88 90 90 88 91 92
66 75 83 90 86 89 90 87 87 84 80 83 88 90 91 95 94 95 94 95 95 94 94 95 93 90 88 87 87 88 89 90
67 67 75 80 84 90 90 87 86 85 86 85 87 91 92 92 90 91 90 84 88 93 95 96 95 89 86 85 84 86 86 88
66 72 75 76 76 80 77 80 86 86 87 88 90 87 86 87 87 82 83 84 86 84 81 82 87 91 94 93 91 87 88 88
64 63 59 65 64 71 66 73 83 79 88 90 86 85 89 88 88 84 85 83 87 88 86 84 88 93 86 84 87 95 91 90
56 63 67 71 69 66 66 67 73 73 82 86 87 86 90 91 84 87 89 91 90 90 90 86 85 85 75 78 81 91 92 93
57 60 68 74 64 60 56 55 56 65 66 76 85 89 90 89 91 90 90 90 91 91 90 90 85 81 72 74 76 89 91 92

GFSFLT1_sfc_rhum_138.txt.gz
RH
37 36 37 35 38 42 42 43 50 51 42 42 38 38 39 40 39 41 52 52 56 54 50 53 54 50 48 47 72 64 67 67
35 38 38 39 41 43 42 45 50 45 40 42 41 42 41 41 42 48 52 52 58 58 50 52 52 52 51 53 54 70 77 65
36 37 39 42 42 45 44 44 47 43 40 42 41 42 41 42 43 47 50 52 57 54 56 55 56 54 59 60 60 54 54 57
38 39 41 41 43 46 45 46 45 46 50 41 41 41 40 42 44 45 46 52 56 60 60 58 60 59 57 58 58 60 55 52
38 40 41 42 44 45 46 48 46 45 50 50 54 48 49 47 48 47 50 56 58 60 64 64 65 61 62 58 52 58 58 58
42 43 42 40 43 45 48 49 47 48 50 52 52 55 51 49 52 57 59 56 59 60 66 66 68 72 70 67 67 65 57 56
41 42 42 41 42 46 48 49 48 50 52 53 57 60 58 58 58 62 61 60 62 65 67 72 72 74 76 75 72 77 72 63
43 42 41 45 47 49 49 50 50 51 54 55 57 60 62 65 66 66 70 69 66 72 72 76 75 74 78 77 78 79 80 86
44 46 46 44 48 50 53 51 52 54 57 56 56 60 63 68 67 70 73 76 74 82 82 77 76 76 77 78 82 81 78 81
47 48 48 42 41 48 52 52 54 60 62 59 60 62 69 72 73 75 80 78 77 93 93 92 88 85 83 85 88 86 83 82
55 53 54 42 41 45 54 55 62 67 64 61 63 70 78 84 80 81 80 82 85 90 95 95 95 91 90 91 92 89 85 86
81 77 54 59 60 61 74 82 78 72 64 66 75 83 90 92 92 88 84 80 89 91 95 95 96 95 92 89 88 89 92 91
68 96 95 89 92 91 90 82 78 76 65 72 87 88 87 89 93 94 92 91 91 94 95 93 94 95 95 92 88 88 90 92
57 71 81 90 84 89 88 88 86 85 76 80 85 86 86 88 88 90 92 93 94 93 95 95 93 94 94 95 96 90 89 90
56 52 64 70 83 88 88 87 86 85 83 82 83 85 86 84 82 79 74 76 79 80 93 98 96 94 93 92 88 90 91 89
55 55 61 63 63 66 65 74 83 83 83 84 85 83 82 79 78 72 67 74 75 72 69 73 79 85 93 94 94 94 92 91
53 49 42 45 46 56 52 63 79 76 83 85 83 82 82 80 80 75 78 73 79 84 84 83 85 83 73 78 83 91 90 88
42 39 42 47 46 44 48 55 65 64 77 82 82 82 82 82 78 79 79 83 82 83 88 87 86 83 71 72 75 88 89 90
40 39 44 48 38 37 38 36 41 54 54 68 79 82 83 82 80 81 80 82 82 82 84 84 83 81 71 69 70 80 86 87